Regional Weather Roundup
Issued by NWS

Home | Current Version | Previous Version | Text Only | Print | Product List | Glossary On
Versions: 1 2 3 4 5 6 7 8 9 10 11 12 13 14 15 16 17 18 19 20 21 22 23 24 25 26 27 28 29 30 31 32 33 34 35 36 37 38 39 40 41 42 43 44 45 46 47 48 49 50
000
ASUS43 KFSD 270410
RWRSD

WEATHER ROUNDUP FOR SOUTH DAKOTA
NATIONAL WEATHER SERVICE SIOUX FALLS SD
1100 PM CDT TUE JUL 26 2016

NOTE: "FAIR" INDICATES FEW OR NO CLOUDS BELOW 12,000 FEET WITH NO
SIGNIFICANT WEATHER AND/OR OBSTRUCTIONS TO VISIBILITY.


SDZ001>005-009-010-012>017-270500-
NORTHWEST AND NORTH CENTRAL SOUTH DAKOTA

CITY           SKY/WX    TMP DP  RH WIND       PRES   REMARKS
BUFFALO          N/A     68  62  81 NE16      30.01R
FAITH            N/A     70  61  73 NE16      30.04R
MOBRIDGE       CLOUDY    73  65  75 N10       29.98R
$$

SDZ012>016-024>037-041>051-057-063-072>074-270500-
SOUTHWEST AND SOUTH CENTRAL SOUTH DAKOTA

CITY           SKY/WX    TMP DP  RH WIND       PRES   REMARKS
RAPID CTY ARPT CLOUDY    70  57  63 NE12      30.06R
PIERRE         CLOUDY    70  62  76 W7        29.94S
CUSTER         CLOUDY    64  53  67 NE8       30.19R
ELLSWORTH AFB  CLOUDY    74  58  56 NE6       30.06R
PHILIP         CLOUDY    73  63  70 SE7       29.98S
PINE RIDGE     CLOUDY    66  59  78 CALM      30.02R
WINNER         MOCLDY    72  61  68 NW13G24   29.98R
$$

SDZ004>011-016>023-039-040-270500-
NORTHEAST SOUTH DAKOTA

CITY           SKY/WX    TMP DP  RH WIND       PRES   REMARKS
ABERDEEN       CLOUDY    71  65  81 NE12      29.97R
WATERTOWN      CLOUDY    72  63  73 E6        29.99R
BROOKINGS      CLOUDY    73  69  87 SE6       30.00R
SISSETON         N/A     68  65  90 CALM      29.98R
$$

SDZ017-020-022-023-036>040-048>070-270500-
SOUTHEAST SOUTH DAKOTA

CITY           SKY/WX    TMP DP  RH WIND       PRES   REMARKS
SIOUX FALLS    CLOUDY    77  65  66 SW10      30.00R
HURON          MOCLDY    76  66  71 SE6       29.91S
CHAMBERLAIN    CLOUDY    74  62  67 N7        29.92S
MITCHELL       CLOUDY    80  65  59 SW9G28    29.89R
YANKTON        CLOUDY    75  64  69 S8        29.98F
$$

ABBREVIATIONS USED IN REMARKS
   TC - TEMPERATURE IN CELSIUS
  WCI - WIND CHILL INDEX
   HX - HEAT INDEX
  VSB - VISIBILITY




USA.gov is the U.S. government's official web portal to all federal, state and local government web resources and services.